Portsmouth, NH

4:55 PM EST on February 21, 2017 (GMT -0500)
Pease International Tradeport

Weather History for KPSM - January, 2012

Change the Weather History Date:

Wednesday, January 11, 2012

  Actual Average Record
Temperature  
Mean Temperature 29 °F -  
Max Temperature 35 °F 30 °F 58 °F (1983)
Min Temperature 23 °F 15 °F -18 °F (1988)
Degree Days  
Heating Degree Days 36    
Moisture  
Dew Point 19 °F    
Average Humidity 61    
Maximum Humidity 71    
Minimum Humidity 40    
Precipitation  
Precipitation 0.00 in - - ()
Sea Level Pressure  
Sea Level Pressure 30.10 in    
Wind  
Wind Speed 6 mph (East)    
Max Wind Speed 12 mph    
Max Gust Speed -    
Visibility 10 miles    
Events      
Averages and records for this station are not official NWS values.
T = Trace of Precipitation, MM = Missing Value Source: NWS Daily Summary

Daily Weather History Graph

Daily Weather History Graph

Search for Another Location

Airport or City:

Trip Planner

Search our weather history database for the weather conditions in past years. The results will help you decide how hot, cold, wet, or windy it might be!

Date:

Astronomy

Jan. 11, 2012 Rise Set
Actual Time 7:13 AM EST 4:28 PM EST
Civil Twilight 6:42 AM EST 5:00 PM EST
Nautical Twilight 6:06 AM EST 5:35 PM EST
Astronomical Twilight 5:32 AM EST 6:09 PM EST
Moon 7:29 PM EST (1/11) 8:19 AM EST (1/11)
Length of Visible Light 10h 18m
Length of Day
9h 14m
Waning Gibbous, 93% of the Moon is Illuminated
Jan 11
Waning Gibbous
Jan 16
Last Quarter
Jan 23
New
Jan 30
First Quarter
Feb 7
Full

Hourly Weather History & Observations

Time (EST) Temp. Windchill Dew Point Humidity Pressure Visibility Wind Dir Wind Speed Gust Speed Precip Events Conditions
12:55 AM 28.8 °F 25.0 °F 18.5 °F 66% 29.96 in 10.0 mi NW 3.5 mph - N/A   Clear
1:55 AM 27.3 °F 20.9 °F 17.4 °F 66% 29.98 in 10.0 mi WNW 5.8 mph - N/A   Clear
2:55 AM 26.8 °F 20.2 °F 16.7 °F 66% 29.99 in 10.0 mi NNW 5.8 mph - N/A   Clear
3:55 AM 27.1 °F 18.9 °F 17.1 °F 66% 30.00 in 10.0 mi WNW 8.1 mph - N/A   Clear
4:55 AM 26.1 °F - 16.5 °F 67% 30.03 in 10.0 mi Calm Calm - N/A   Clear
5:55 AM 25.7 °F 17.1 °F 15.4 °F 65% 30.04 in 10.0 mi WNW 8.1 mph - N/A   Clear
6:55 AM 23.7 °F 17.8 °F 14.9 °F 69% 30.07 in 10.0 mi North 4.6 mph - N/A   Partly Cloudy
7:55 AM 26.2 °F 22.1 °F 14.0 °F 60% 30.11 in 10.0 mi NE 3.5 mph - N/A   Mostly Cloudy
8:55 AM 28.4 °F 23.3 °F 10.4 °F 47% 30.14 in 10.0 mi NNE 4.6 mph - N/A   Scattered Clouds
9:55 AM 30.9 °F - 9.7 °F 41% 30.15 in 10.0 mi Calm Calm - N/A   Scattered Clouds
10:55 AM 32.4 °F - 10.2 °F 40% 30.14 in 10.0 mi Calm Calm - N/A   Mostly Cloudy
11:55 AM 32.9 °F 26.7 °F 14.7 °F 47% 30.12 in 10.0 mi East 6.9 mph - N/A   Mostly Cloudy
12:55 PM 33.3 °F 26.4 °F 15.6 °F 48% 30.11 in 10.0 mi SE 8.1 mph - N/A   Mostly Cloudy
1:55 PM 33.1 °F 27.7 °F 16.0 °F 50% 30.12 in 10.0 mi ESE 5.8 mph - N/A   Mostly Cloudy
2:55 PM 32.2 °F 25.0 °F 16.5 °F 53% 30.13 in 10.0 mi ESE 8.1 mph - N/A   Overcast
3:55 PM 31.8 °F 24.6 °F 18.7 °F 58% 30.15 in 10.0 mi ESE 8.1 mph - N/A   Overcast
4:55 PM 32.0 °F 25.6 °F 20.5 °F 63% 30.14 in 10.0 mi ESE 6.9 mph - N/A   Overcast
5:55 PM 32.7 °F 26.4 °F 22.3 °F 65% 30.14 in 10.0 mi East 6.9 mph - N/A   Overcast
6:55 PM 33.1 °F 24.4 °F 24.1 °F 70% 30.14 in 10.0 mi ESE 11.5 mph - N/A   Overcast
7:36 PM 33.8 °F 27.0 °F 24.8 °F 70% 30.15 in 10.0 mi East 8.1 mph - N/A   Overcast
7:55 PM 33.3 °F 25.7 °F 24.4 °F 70% 30.14 in 10.0 mi East 9.2 mph - N/A   Overcast
8:55 PM 33.6 °F 26.2 °F 25.0 °F 71% 30.14 in 10.0 mi ESE 9.2 mph - N/A   Overcast
9:55 PM 34.3 °F 25.9 °F 25.9 °F 71% 30.13 in 10.0 mi ESE 11.5 mph - N/A   Overcast
10:55 PM 35.1 °F 27.9 °F 26.6 °F 71% 30.12 in 10.0 mi East 9.2 mph - N/A   Overcast
11:55 PM 35.6 °F 29.2 °F 27.0 °F 71% 30.12 in 10.0 mi ESE 8.1 mph - N/A   Overcast